CAPE
2983 3094 2960 2981 3088 3146 3206 3334 3327 3355 3210 3132 3237 3136 3153 2981 2943 3026 3027 3039 3104 3306 3446 3389 3212 3328 3292 3412 2963 3177 3524 3440 3307 3438 3513 3428 3410 3398 2992 2838 2842 2787 2521 2220 1750 1358 1591 1352 1113 1186 893 630 369 464 607 592 459 425 353 438 354 403 390 385 352 373 220 121 34 8 14 15 91 131 127 57 100 129 67 100 187 146 144 80 240
2852 3052 3037 2938 2893 3147 3092 3146 3311 3220 3160 3064 3162 3110 3101 3107 3094 3122 2913 3191 3174 3092 3527 3481 3298 3336 3291 3438 3454 3325 3682 3814 3458 3456 3643 3634 3694 3672 3218 2912 2954 2908 2463 2392 2234 1541 1716 1572 1181 1242 1097 686 361 461 449 600 511 359 459 329 274 490 348 427 338 271 265 516 263 27 38 40 54 148 139 76 28 63 105 54 116 162 181 244 116
2654 2976 3006 2941 2988 3116 3084 3116 3142 3122 3030 3038 2855 2840 3032 3214 3115 3039 2964 2876 3229 3156 3303 3471 3542 3518 3483 3460 3643 3513 3691 4115 3855 3678 3702 3820 3811 3432 3134 3123 3100 2977 2524 2508 2460 2005 1676 1624 1344 1174 1147 888 499 400 348 612 526 422 555 488 383 423 585 325 429 414 430 314 206 180 140 215 159 177 234 130 94 123 170 511 288 294 287 187 107
2523 2809 2875 2832 2850 3000 3077 2968 2874 2920 2829 2794 2766 2746 2774 2973 3072 2969 2913 2742 2986 3265 3196 3385 3609 3720 3626 3619 3700 3716 3795 4000 4139 3838 3922 3933 3922 3609 3380 3320 3424 3326 3014 2786 2496 2211 1873 1687 1317 1099 1172 1046 605 442 330 395 579 485 537 693 522 485 663 736 446 394 483 377 342 136 101 213 307 242 283 348 216 488 474 381 290 108 221 356 409
2359 2582 2724 2742 2739 2887 2800 2794 2789 2862 2751 2641 2640 2642 2670 2723 2877 2960 2926 2806 2746 3110 3344 3371 3586 3862 3772 3730 3737 3882 3912 4161 4251 3954 3814 3914 3833 3448 3396 3463 3473 3417 3141 2899 2416 2319 2101 1689 1358 1153 1265 1295 805 627 328 434 525 448 544 639 762 551 586 825 900 658 590 513 437 394 263 222 209 210 274 296 477 826 1043 677 404 530 807 499 175
2216 2435 2617 2618 2663 2704 2794 2754 2568 2620 2660 2617 2493 2468 2450 2497 2658 2860 2928 2889 2912 2876 3364 3408 3414 3808 3905 3865 3794 3870 3985 4154 4256 4097 3582 3601 3678 3452 3374 3531 3440 3427 3266 2941 2701 2418 2285 1933 1445 1369 1314 1422 1016 809 618 561 626 544 583 634 832 694 695 903 877 916 730 625 547 390 568 427 345 364 476 538 309 114 485 911 1211 1058 799 871 444
2320 2311 2521 2630 2694 2594 2658 2728 2708 2543 2686 2660 2585 2422 2364 2319 2426 2648 2842 2912 2945 2918 2974 3508 3452 3639 3963 3952 3800 3926 3998 4008 4202 4210 3921 3544 3564 3585 3218 3463 3467 3378 3303 2961 2706 2499 2313 2104 1738 1525 1520 1511 1151 1008 938 796 763 632 646 692 848 812 764 908 942 791 775 668 543 520 410 369 382 360 836 953 725 415 221 174 550 802 1194 1074 1100
2310 2388 2525 2707 2740 2624 2682 2896 2929 2781 2750 2886 2759 2586 2465 2484 2563 2609 2790 2942 2881 2884 2938 3353 3606 3520 3810 3972 3856 3881 3958 3919 4156 4285 4213 3758 3519 3686 3511 3282 3450 3394 3272 3021 2662 2449 2384 2179 1796 1648 1679 1677 1374 1084 1189 1064 912 789 669 672 828 809 795 809 859 734 711 664 618 550 471 396 921 647 908 1559 1068 876 725 657 436 575 853 1295 1204
2336 2359 2550 2862 2978 2955 3036 3015 3054 3011 2812 3027 3010 2891 2873 2909 2804 2807 2914 3024 3042 2993 2938 3149 3602 3650 3562 3849 3820 3735 3773 3927 3986 4143 4215 3964 3638 3516 3633 3372 3431 3414 3314 3082 2869 2576 2459 2340 1995 1572 1765 1614 1205 1069 1052 1068 1129 900 788 809 766 984 867 774 874 784 752 703 706 552 490 485 458 514 1099 1335 1040 905 356 1167 1083 690 859 822 942
2467 2467 2575 2898 3102 3143 3178 3170 3226 3264 3252 3193 3314 3212 3002 2986 3020 3026 2988 3165 3317 3205 3134 3171 3366 3600 3651 3776 3829 3710 3668 3833 3439 3183 3465 3918 3827 3472 3524 3502 3450 3354 3392 3236 2951 2791 2540 2369 2106 1363 1306 1232 1040 834 832 781 654 658 892 1015 915 957 919 832 926 909 777 696 627 584 483 483 428 586 646 848 1094 1026 710 898 683 874 842 827 522
2476 2631 2778 2967 3198 3324 3458 3424 3481 3618 3544 3510 3456 3492 3322 3257 3215 3255 3267 3336 3497 3468 3331 3261 3237 3438 3544 3603 3722 3713 3496 3353 2902 2804 3028 3034 3490 3790 3518 3615 3610 3446 3352 3415 3174 2860 2758 2494 2416 1726 1246 1038 854 659 588 562 370 364 556 1018 1081 1091 946 884 882 924 812 669 589 495 409 434 358 374 860 980 327 673 847 1018 974 327 290 88 31
2497 2868 2832 3206 3428 3538 3696 3815 3812 3825 3814 3732 3631 3670 3617 3466 3521 3579 3438 3434 3662 3612 3452 3415 3483 3352 3507 3578 3531 3575 3505 2736 2430 2502 2692 2648 2604 3372 3550 3472 3528 3476 3393 3383 3288 2980 2768 2692 2498 2324 1754 1506 1320 927 496 395 182 65 203 926 948 742 632 908 962 959 921 707 567 581 511 522 525 546 460 154 117 490 825 364 817 286 118 52 59
2547 3139 3156 3412 3621 3812 4070 3974 4000 3991 4067 3974 3936 4023 3894 3815 3720 3676 3636 3701 3716 3816 3763 3576 3571 3411 3385 3554 3531 3475 3349 2660 2378 2341 2378 2436 2304 2382 3275 3443 3348 3410 3364 3366 3331 3135 2920 2742 2634 2360 2180 1210 1014 1279 1143 620 341 0 18 220 620 613 608 537 656 1060 810 748 688 638 608 564 596 448 303 326 353 233 207 181 229 103 96 123 56
2696 3352 3521 3688 3950 4244 4385 4246 4171 4201 4229 4131 4065 4122 4138 3984 3810 3836 3761 3833 3750 3735 3467 3464 3414 3157 3373 3272 3436 3596 3486 2885 2436 2246 2197 2266 2234 2102 2925 3309 3367 3319 3335 3360 3309 3194 3128 2932 2690 2465 2352 1672 1308 1313 1495 1162 634 318 352 393 518 578 380 260 297 258 908 870 755 680 626 802 746 627 512 625 706 431 247 242 102 108 164 148 215
2881 3425 3764 3780 4081 4464 4448 4242 4218 4363 4376 4268 4274 4245 4141 4032 3952 3859 3659 3709 3769 3574 3229 3418 3494 2944 2902 2954 2731 2766 3156 2893 2594 2303 2197 2176 2128 2034 2378 2842 3226 3352 3339 3310 3294 3171 3202 3100 2880 2604 2445 2230 1567 1342 1622 1513 1138 711 507 472 545 592 627 392 322 250 402 275 662 709 499 659 878 747 960 952 638 463 348 305 187 200 120 6 0
2802 3242 3864 3805 4082 4323 4304 4339 4333 4224 4226 4276 4230 4139 4085 4102 4088 3879 3673 3611 3540 3343 3327 3134 2898 3120 3107 2746 2996 2995 3005 2685 2611 2448 2261 2108 2037 1967 2035 2584 2958 3109 3232 3257 3229 3158 3094 3192 3098 2754 2571 2396 1599 936 1216 1607 1450 1178 1018 848 642 579 385 415 409 316 285 256 560 381 452 447 732 957 876 570 612 572 312 70 42 0 0 0 0
3029 3264 3894 4030 3899 4234 4294 4292 4106 4052 4054 4234 4222 4101 4095 4134 4054 3948 3884 3693 3556 3453 3215 2963 2801 2924 2739 3017 3022 2953 2703 2771 2353 2266 2141 2109 2083 2015 1986 2339 2730 3024 3097 3166 3018 2947 3039 3148 3174 2903 2647 2516 1867 1102 860 1189 1648 1479 1173 797 494 454 485 642 498 367 336 289 233 207 124 0 71 0 0 10 542 194 111 0 2 0 0 0 0
3455 3742 3989 3939 3880 4062 4148 4058 4095 4046 4146 4246 4246 4136 4031 4060 4118 3990 3913 3746 3478 3515 3435 3380 3235 2846 3018 2859 2745 2840 2730 2846 2516 2329 2130 2068 2077 2065 2021 2246 2443 2784 3000 2820 2630 2592 2620 2447 2716 2972 2680 2851 1713 1281 1071 960 1608 1618 1319 685 703 692 649 869 597 467 344 315 270 228 174 0 0 0 0 0 0 13 2 0 0 0 0 0 0
3388 3552 3749 3646 3831 3962 3986 3971 4046 4125 4175 4201 4194 4162 3996 4056 3938 3933 3864 3764 3651 3675 3460 3382 3298 3248 2931 2645 2541 2609 2754 2705 2551 2472 2286 2194 2097 2074 2221 2231 2292 2692 2881 2847 2706 2567 2650 2290 2037 2340 2595 2732 1707 1426 1336 1193 1415 1710 1332 758 814 831 849 672 736 604 452 369 311 251 214 54 34 73 0 0 0 0 0 0 0 0 0 0 0
3120 3215 3345 3484 3681 3878 3851 4036 4145 4196 4238 4175 4086 4065 4004 3862 3944 3889 3875 3686 3723 3612 3218 3269 3140 3023 2794 2781 3044 2578 2584 3264 2587 2556 2428 2326 2225 2111 2315 2242 2382 2633 2840 2612 2610 2672 2702 2761 2140 1922 1714 1761 1579 1472 1444 1436 1308 1363 938 931 965 1053 979 808 736 665 820 413 267 240 240 86 99 36 0 0 0 0 0 0 0 0 0 0 0
3349 3423 3514 3415 3474 3958 4055 4128 4122 4176 4224 4280 4051 3772 3765 3787 3725 3886 3821 3654 3659 3705 3636 3458 3334 3337 3042 3180 2929 2628 2554 2990 2602 2620 2541 2459 2358 2192 2181 2112 2479 2668 2880 2568 2493 2669 2729 2505 2436 2068 1783 1558 1525 1490 1517 1555 1477 1368 1229 1171 1227 1286 1094 923 789 688 537 330 249 247 222 119 90 72 21 0 0 0 0 0 0 0 0 0 0
3493 3709 3900 3712 3468 3912 4074 4066 4291 4276 4250 4194 4180 3942 3839 3840 3888 3912 3704 3867 3909 3870 3886 3522 3196 3172 2993 3104 3323 2928 2662 2740 3193 2515 2572 2534 2457 2320 2140 2186 2121 2596 2784 2768 2677 2645 2758 2609 2314 2124 1880 1652 1543 1554 1589 1582 1579 1514 1394 1352 1359 1281 1148 986 869 607 589 266 268 254 186 159 120 89 8 0 0 0 0 0 0 0 0 0 0
3766 4038 4172 3893 3721 3986 4344 4304 4317 4310 4317 4203 4201 4083 4022 3974 3992 4025 4099 4033 4017 4012 4041 3843 3538 3382 3314 3318 3089 3358 3490 3362 2620 2502 2555 2567 2533 2446 2301 2208 1959 2340 2737 2849 2852 2860 3002 2733 2529 1960 1806 1582 1473 1477 1571 1608 1644 1600 1527 1424 1430 1359 1212 1026 752 429 343 343 246 198 207 148 98 4 0 0 0 0 0 0 0 0 0 0 0
4227 4260 4216 4196 4042 4022 4273 4306 4400 4296 4236 4174 4168 4266 4194 4056 4110 4200 4378 4281 4099 4011 3876 3849 3737 3418 3297 3264 2897 3302 3497 3753 3193 2712 2616 2527 2517 2496 2415 2304 2069 1977 2449 2891 3052 2946 2714 2594 2517 1835 1746 1552 1381 1457 1546 1629 1677 1692 1550 1452 1407 1287 1144 722 421 474 526 235 257 310 251 166 33 0 0 0 0 0 0 0 0 0 0 0 0
4020 4003 3985 3979 3946 3816 3884 4346 4560 4443 4314 4326 4347 4282 4283 4237 4328 4361 4262 3979 3971 3443 3407 3545 3812 3628 3688 3576 3456 3486 3546 3822 4044 3170 2900 2647 2534 2438 2383 2346 2279 2086 1984 2423 2653 2462 2361 2012 1887 1718 1663 1560 1512 1547 1580 1656 1683 1667 1527 1367 1222 972 671 404 312 493 539 493 312 244 195 74 0 0 0 0 0 0 0 0 0 0 0 0 0
3869 3795 3867 3884 3996 3946 4092 4237 4472 4512 4360 4298 4432 4485 4468 4526 4495 4469 4180 3974 3943 3828 3837 3606 3485 3632 3759 3693 3540 3568 3698 3721 4261 3549 3216 2952 2659 2523 2430 2349 2292 2191 2059 2147 2128 2214 2180 2100 1865 1625 1482 1460 1442 1507 1569 1611 1590 1503 1253 1099 938 720 498 344 500 528 452 196 142 119 97 10 0 0 0 0 0 0 0 0 0 0 0 0 0
3747 3905 4021 3960 3926 3975 3923 4021 4218 4411 4506 4299 4269 4436 4483 4466 4379 4302 4143 3895 3954 3774 3710 3703 3690 3598 3699 3651 3787 3892 3816 3886 4325 3689 3429 3114 2801 2691 2563 2484 2351 2212 2083 2000 1959 1948 2081 2074 2039 1903 1543 1357 1390 1425 1488 1493 1502 1324 1123 1063 991 789 482 460 355 375 177 192 86 78 32 3 0 0 0 0 0 0 0 0 0 0 0 2 1
4074 4179 4332 4285 4119 4240 4100 3917 4000 4160 4314 4326 4244 4032 3930 3697 3984 4082 4010 4066 4017 3844 3846 3760 3695 3722 3679 3661 3732 3707 3877 3990 4238 4082 3445 3070 2897 2814 2726 2571 2426 2314 2116 2006 1918 1775 1724 1873 2038 1873 1685 1432 1300 1345 1445 1491 1502 1387 1242 1171 930 584 313 234 156 208 252 205 167 167 14 0 0 0 0 0 0 0 0 0 0 0 0 2 2
4082 3957 3593 3488 3411 3338 3314 3739 3498 3522 3926 4185 4072 4219 4111 3778 3288 3782 3859 4061 4029 3583 3954 3875 3970 3927 3448 3395 3762 3695 3921 3896 4038 3750 3630 3304 3029 2890 2777 2622 2455 2321 2134 2065 1797 1560 1634 1829 1980 1845 1719 1607 1535 1513 1515 1538 1496 1434 1406 1138 652 347 320 278 268 321 295 201 80 10 0 0 0 0 0 0 0 0 0 0 0 0 0 0 0
4124 4091 3992 3974 3746 3394 3530 3499 3392 3226 3249 3374 3649 3938 3717 3619 4459 4138 3844 3514 3489 3587 3380 4184 4532 4487 4014 3850 4076 3872 3973 4107 3789 3613 3559 3474 3104 2916 2802 2653 2428 2278 2174 2077 1806 1579 1419 1508 1855 1776 1678 1603 1615 1583 1568 1539 1447 1330 1267 638 247 192 156 156 127 196 101 52 26 25 8 0 0 0 0 0 0 0 0 0 0 0 0 0 0
3436 3403 3450 3701 3801 3655 3914 3794 3988 4088 4001 4083 4023 3750 3514 4442 3332 3087 3158 3446 3760 3724 3515 3450 3467 3432 3403 3859 4459 4039 3649 3514 3537 3599 3546 3415 3229 2947 2769 2612 2549 2426 2320 2319 2098 1723 1338 1464 1510 1716 1638 1611 1566 1506 1500 1458 1450 1230 904 210 28 47 0 118 49 15 25 31 25 35 0 0 0 0 0 0 0 0 0 0 0 2 0 0 0
2855 2434 2364 2599 2596 2851 2999 2944 2980 2984 3226 3179 3366 3472 3318 3517 4006 3680 2983 2876 2716 2751 2948 3230 3419 3495 3478 3393 3317 3285 3343 3352 3436 3426 3445 3459 3310 3114 2895 2698 2560 2482 2386 2277 2170 1856 1394 1314 1430 1517 1569 1537 1514 1460 1440 1409 1142 1004 455 247 152 163 166 74 41 42 17 26 49 16 0 0 0 0 0 0 0 0 0 8 0 0 0 0 0
1902 1803 2112 2279 2163 1981 2272 2313 2434 2562 2816 2598 2679 2472 2465 2659 2653 2755 4448 2151 1959 2105 2294 2282 2319 2450 2731 2979 3126 3105 3074 3058 3032 3154 3286 3309 3247 3148 2948 2737 2518 2369 2324 2281 2143 1790 1424 1397 1435 1465 1550 1525 1400 1344 1262 1168 960 484 402 320 220 240 27 57 55 56 30 44 52 0 0 0 0 0 0 0 0 0 0 12 6 2 0 0 0
1496 1634 1855 1930 2013 2070 2011 2144 2064 2163 2036 2054 1880 1708 1784 1789 1824 1744 1704 1706 2500 2243 1540 1195 1103 1121 1196 1324 1470 1808 2088 2275 2491 2641 2721 2791 2901 2897 2773 2644 2476 2378 2300 2306 2188 1758 1633 1412 1403 1370 1415 1382 1335 1200 922 888 586 458 454 458 292 86 18 77 86 42 27 22 0 0 0 0 0 0 0 0 0 0 0 10 8 4 6 0 0
2082 1718 1150 1359 1905 1778 1658 1557 1438 1409 1318 1380 1381 1399 1376 1275 1089 1090 1285 1292 1282 1271 1364 2146 1927 1204 939 860 796 663 733 1075 1433 1710 1957 2175 2347 2402 2436 2397 2382 2365 2352 2347 2045 1797 1387 1391 1362 1297 1265 1285 1100 999 1000 622 5 294 375 112 34 35 74 67 46 42 30 20 0 0 0 0 0 0 0 0 0 1 3 1 0 0 1 0 0
1823 1852 1729 1571 1534 1462 1237 1126 896 841 786 906 918 936 891 948 972 1007 947 942 968 1043 953 762 636 372 0 0 0 0 0 0 285 757 1202 1469 1688 1866 2013 2204 2283 2290 2321 2248 1666 1415 1315 1339 1245 1254 1102 1225 906 832 550 81 253 309 200 60 59 67 46 24 9 8 5 5 2 3 0 0 0 0 0 0 0 9 7 0 0 0 0 0 0
1407 1429 1368 1305 1387 1238 1000 864 793 424 306 559 793 1002 956 938 773 762 821 877 832 724 540 577 459 98 240 286 27 0 0 0 0 0 262 815 1203 1392 1490 1676 2018 2116 2037 2025 1566 1175 1199 1256 1219 1012 817 797 837 546 1 72 114 125 51 58 51 43 50 28 9 7 16 32 17 5 0 0 0 0 0 0 2 4 0 0 0 0 0 0 0
919 624 645 481 972 956 934 866 574 433 664 680 802 788 695 672 688 743 793 889 678 401 275 237 0 0 0 0 0 0 21 183 0 0 0 112 521 899 1031 1344 1410 1618 1520 1296 1248 960 1124 1277 974 855 752 718 113 0 0 25 2 4 6 66 75 79 55 7 26 35 46 41 15 0 4 0 0 0 0 0 0 0 0 0 0 0 0 0 0
1044 556 431 401 367 686 792 746 745 636 657 628 625 495 395 403 514 592 708 814 468 126 34 34 10 0 1 1 182 263 212 1 0 0 0 0 154 360 449 452 499 586 737 629 684 810 1006 1143 908 821 383 2 2 2 0 0 0 21 112 107 79 66 41 26 23 52 44 29 6 23 20 0 0 0 1 0 0 0 0 0 0 0 0 0 0
951 915 655 498 729 555 681 598 704 597 556 496 573 484 418 335 340 363 507 580 218 14 300 228 0 0 1 38 312 273 177 0 0 183 0 4 10 23 16 252 241 402 420 465 618 801 1060 974 688 297 22 1 0 0 0 0 22 116 98 65 76 58 39 52 70 97 80 27 26 31 7 0 0 0 0 0 0 0 0 0 0 0 0 0 0
783 697 622 578 493 784 701 657 755 543 629 475 530 583 448 374 405 459 471 409 121 7 0 0 41 0 0 0 0 0 2 0 0 0 78 138 42 39 26 14 74 275 461 509 659 843 902 435 108 4 0 0 0 0 10 47 96 86 83 97 120 116 108 120 127 120 48 15 24 12 2 0 0 0 0 0 0 0 0 0 0 0 0 0 0
617 608 625 627 616 687 693 713 630 642 616 602 666 553 462 466 508 517 305 360 208 66 1 0 1 2 0 1 0 0 4 3 13 9 73 308 151 34 32 11 151 158 317 325 549 636 324 4 0 0 0 3 8 14 31 93 132 120 136 161 195 182 146 109 84 52 29 35 16 7 3 0 0 0 0 0 0 0 0 0 0 0 0 0 0
434 396 504 584 572 556 563 594 699 628 526 515 421 497 614 575 450 472 464 376 183 67 39 0 391 234 1 0 0 2 34 7 9 13 8 123 98 1 8 59 75 64 49 35 37 29 2 2 5 12 18 23 48 50 74 91 110 167 188 226 224 189 128 76 62 56 52 20 13 2 0 0 0 0 0 0 0 0 0 0 0 0 0 0 0
298 277 228 256 320 369 342 381 390 499 489 352 445 413 506 448 351 426 452 479 327 273 104 21 243 276 2 68 128 137 90 79 48 95 84 93 92 65 134 36 11 23 49 45 28 8 6 16 22 29 40 43 113 130 133 166 202 238 208 214 212 146 106 67 68 52 27 22 8 0 0 0 0 0 0 0 0 0 0 0 0 0 0 0 0
170 176 177 175 154 157 157 165 155 250 198 297 406 409 416 464 357 238 253 257 486 396 222 27 30 9 84 197 213 179 104 60 36 11 45 14 48 23 5 25 22 22 31 25 10 18 23 29 51 66 50 118 176 182 180 228 201 102 231 281 213 108 108 79 55 40 29 21 1 0 0 0 0 0 0 0 0 0 0 0 0 0 0 0 0
37 45 34 48 35 20 18 18 8 39 66 70 126 193 228 360 293 169 93 170 520 591 204 22 0 9 7 66 71 118 18 6 17 6 4 7 6 6 8 3 2 0 4 18 37 79 66 73 64 130 105 125 246 218 160 325 248 374 368 288 167 108 92 46 25 17 12 4 0 0 0 0 0 0 0 0 0 0 0 0 0 0 0 0 0
16 6 15 14 9 2 4 5 7 8 8 8 8 6 14 19 21 44 24 0 1 3 16 6 5 186 213 58 12 16 14 8 10 9 4 9 16 24 28 24 10 6 20 30 28 17 42 47 124 110 168 239 313 359 329 347 336 273 232 174 106 63 42 13 7 6 1 0 0 0 0 0 0 0 0 0 0 0 0 0 0 0 0 0 0
4 2 2 7 10 10 10 10 10 8 10 8 7 7 6 5 4 6 5 3 2 2 1 2 1 8 6 18 7 28 41 32 24 30 12 2 2 18 48 53 30 65 98 79 56 80 139 194 241 254 249 297 317 279 305 256 228 177 146 92 51 35 12 5 8 0 0 0 0 0 0 0 0 0 0 0 0 0 0 0 0 0 0 0 0
0 0 0 2 3 4 6 8 7 9 8 9 9 9 6 7 7 4 4 4 3 3 3 1 10 3 19 64 0 2 26 27 58 42 64 12 0 3 11 48 32 47 125 106 138 258 190 310 312 293 252 273 264 242 225 217 146 122 63 54 19 0 0 0 0 0 0 0 0 0 0 0 0 0 0 0 0 0 0 0 1 2 0 0 0
0 0 0 0 0 0 0 2 3 4 2 0 0 1 4 7 9 7 5 2 4 3 12 47 79 64 27 15 3 2 1 1 17 70 39 0 0 0 15 58 45 55 116 127 182 312 320 438 387 321 311 286 215 205 160 127 107 41 60 0 0 0 0 0 0 0 0 0 0 0 0 0 0 0 0 0 0 0 0 0 0 0 0 0 0
0 0 0 0 0 0 0 0 0 0 0 0 0 0 0 2 4 5 6 6 2 0 3 12 5 8 2 11 3 3 1 7 1 8 31 19 60 22 43 163 136 106 97 141 196 255 335 360 335 330 301 224 205 148 126 75 68 74 30 0 0 0 0 0 0 0 0 0 0 0 0 0 0 0 0 0 0 0 0 0 0 0 0 0 0
Wind_Speed
12 12 13 12 12 12 12 13 13 13 14 14 14 14 16 16 17 17 19 17 17 16 15 15 16 16 16 16 16 15 15 16 17 16 13 10 11 12 11 11 11 11 12 14 15 16 18 20 22 24 24 24 24 27 29 27 22 19 20 20 20 21 21 20 17 17 18 16 nan nan nan nan nan 23 24 nan 29 31 nan nan 33 32 33 nan 37
12 13 13 13 12 12 13 13 15 15 15 15 15 16 17 18 19 20 18 18 18 17 17 17 17 18 18 18 18 17 17 17 18 17 15 12 12 12 11 11 11 11 12 14 16 16 19 21 23 26 28 26 26 28 27 26 24 22 22 21 22 24 25 24 22 20 19 20 17 nan nan nan nan 24 25 nan nan nan 32 nan 33 32 32 33 33
12 14 14 13 12 12 13 15 16 17 17 16 16 17 17 18 20 20 19 19 19 17 18 18 19 20 20 21 20 19 19 18 18 18 17 14 13 12 12 12 12 11 12 14 16 17 19 21 24 27 28 28 28 27 27 26 25 24 25 24 23 24 26 26 25 24 23 20 19 20 22 24 23 26 26 27 nan 31 32 34 33 33 32 31 33
12 13 13 13 13 14 14 15 17 17 17 16 16 17 17 18 19 19 20 19 18 18 18 19 20 21 22 22 22 22 20 19 19 18 18 16 15 13 12 12 12 12 13 14 16 17 18 21 24 27 29 29 28 27 26 26 26 26 26 27 26 25 25 27 28 26 25 23 24 20 23 24 27 27 29 30 31 33 33 34 33 32 32 34 36
15 13 14 14 15 15 15 16 17 17 16 15 16 17 17 17 18 18 18 18 17 18 18 19 19 21 21 22 23 23 22 21 19 18 18 17 16 14 12 12 13 13 13 13 15 17 18 20 23 26 29 29 28 27 27 29 28 29 29 29 28 27 26 27 29 29 28 26 25 26 25 26 26 29 32 32 34 34 35 34 33 33 34 35 35
17 16 16 16 15 15 16 17 17 17 16 15 16 17 17 16 17 17 17 17 17 16 16 16 17 17 18 20 21 22 22 21 20 18 18 18 17 16 14 13 13 14 14 13 15 16 16 19 21 25 28 29 28 29 29 30 29 30 32 30 29 28 29 29 29 30 29 27 26 28 30 29 30 30 33 35 34 35 35 33 33 33 35 36 37
19 17 17 18 16 16 17 17 17 16 15 15 16 16 16 16 16 15 15 14 14 14 14 15 14 14 15 17 18 20 21 20 19 18 17 18 18 17 15 14 14 15 15 15 15 15 16 17 20 23 27 29 30 30 31 31 29 32 32 29 28 30 32 31 31 30 29 28 28 28 29 31 32 33 35 36 35 34 34 34 33 35 38 38 39
19 17 18 18 16 16 17 18 17 16 15 16 16 15 15 14 13 11 10 11 12 13 15 16 15 15 15 16 16 17 18 19 18 17 17 18 19 18 17 16 15 16 17 17 16 15 15 16 18 22 26 29 30 30 32 32 31 32 30 26 27 32 32 31 31 29 29 30 29 31 32 33 35 35 38 39 36 36 36 34 33 34 36 40 40
20 19 18 16 14 15 17 18 17 17 17 17 16 15 14 12 10 8 7 7 8 12 14 16 17 17 17 17 18 18 17 17 17 17 18 18 19 19 19 18 17 18 19 19 18 17 16 16 16 19 25 29 32 30 31 32 32 32 29 25 27 32 32 31 31 30 31 31 32 33 34 35 36 37 39 39 37 36 36 36 35 36 37 39 42
21 19 16 13 13 16 18 19 18 18 18 17 16 15 13 12 10 8 8 8 8 10 13 15 16 18 19 20 20 19 18 17 17 20 19 19 20 20 21 20 19 19 21 21 21 20 19 18 18 20 26 32 33 33 33 34 34 31 28 26 28 32 33 35 36 35 33 33 33 35 36 37 38 39 39 39 38 37 36 36 35 37 38 38 39
17 15 12 12 15 16 18 18 19 18 17 16 17 16 15 13 11 9 9 10 11 11 13 15 15 15 18 19 21 20 19 18 21 22 22 20 20 21 22 22 21 21 21 23 23 23 22 20 19 23 27 32 34 36 35 36 37 33 30 29 30 33 36 39 40 38 34 32 34 35 36 38 39 40 40 39 38 37 36 37 36 37 37 nan nan
13 12 11 14 15 15 16 17 17 16 16 15 16 17 16 15 13 12 11 12 12 13 15 15 14 14 14 16 18 18 18 20 23 24 23 23 21 21 22 22 23 23 22 23 25 26 25 24 22 22 26 30 32 34 35 38 39 nan 32 32 34 35 35 37 39 38 35 33 35 37 38 39 39 39 38 37 38 39 36 36 37 37 37 nan nan
14 13 14 14 13 13 14 14 13 14 14 15 16 17 17 16 14 13 13 12 13 14 16 16 15 14 13 13 14 16 16 21 24 25 24 24 23 21 21 22 23 23 23 24 25 27 27 26 24 24 26 33 33 33 35 38 40 nan nan 32 32 37 38 35 32 34 38 37 37 38 39 39 39 38 37 37 38 36 36 36 37 37 nan 40 nan
16 16 16 14 13 13 13 12 12 13 14 16 16 16 16 14 13 11 11 13 13 14 15 15 13 14 13 11 11 13 15 20 25 27 27 27 24 23 21 23 23 24 24 25 26 27 29 28 26 26 27 33 33 34 35 39 42 40 35 34 35 39 40 38 37 33 31 37 40 39 40 40 38 38 40 41 41 37 36 36 37 38 41 40 38
17 17 16 16 16 17 16 15 14 15 15 15 15 14 14 13 12 12 12 13 14 13 13 14 13 14 15 13 11 10 11 19 25 27 29 30 28 26 24 24 24 24 25 26 27 27 28 29 28 28 30 32 34 36 37 40 43 42 39 38 39 40 43 44 44 42 41 41 42 42 40 41 39 39 42 42 39 37 36 36 39 41 41 nan nan
18 18 18 18 19 19 19 18 18 17 17 16 14 13 13 13 13 14 14 14 13 12 14 14 15 17 17 16 14 12 12 20 26 28 31 32 34 30 27 26 25 25 27 28 29 29 28 29 30 30 32 32 38 43 41 42 44 44 43 41 41 42 44 47 47 45 43 43 43 42 41 43 42 40 41 41 42 40 41 nan nan nan nan nan nan
19 20 20 21 20 20 19 19 20 20 18 17 15 14 14 14 15 17 16 16 16 16 16 15 17 18 19 20 19 16 14 20 29 30 32 36 36 31 30 29 28 27 28 30 30 29 28 30 31 33 34 34 43 47 47 46 44 45 45 45 44 45 45 49 53 49 44 44 46 46 48 nan nan nan nan nan 41 41 40 nan nan nan nan nan nan
22 23 22 22 22 21 19 19 20 20 19 17 17 17 17 17 17 19 18 18 17 18 19 19 18 19 21 23 24 23 20 25 33 32 34 38 39 34 32 31 29 29 29 30 31 30 28 32 35 35 37 38 50 51 52 49 45 46 48 49 49 48 49 53 55 54 52 49 48 49 49 nan nan nan nan nan nan nan nan nan nan nan nan nan nan
21 22 23 23 22 21 21 20 19 20 19 18 19 20 20 20 21 22 21 20 19 20 22 22 22 22 20 22 26 26 24 29 39 36 36 38 37 34 34 31 30 31 32 31 30 30 31 36 40 39 40 47 56 55 56 53 48 49 50 52 52 52 53 57 58 57 53 50 50 51 50 nan nan nan nan nan nan nan nan nan nan nan nan nan nan
22 23 24 25 23 23 22 21 20 21 21 22 22 22 23 24 24 25 24 24 23 22 23 24 23 23 21 22 26 27 25 26 40 40 40 40 39 36 33 31 31 33 35 34 33 31 32 34 41 42 46 56 57 59 59 57 52 51 52 53 54 56 58 59 61 59 56 53 53 53 51 nan nan nan nan nan nan nan nan nan nan nan nan nan nan
24 26 27 28 27 26 24 22 22 22 24 26 26 25 26 27 28 29 28 28 27 27 28 28 28 26 26 27 25 26 26 26 37 42 41 42 42 39 34 31 32 35 38 36 35 34 35 35 34 46 51 58 59 60 62 60 56 56 55 55 56 60 62 63 66 63 58 58 56 55 52 50 nan nan nan nan nan nan nan nan nan nan nan nan nan
26 29 30 31 30 30 29 28 27 27 27 29 30 29 29 30 31 32 32 32 31 31 31 31 31 29 29 30 30 28 30 34 35 42 41 40 42 42 37 33 33 36 40 39 39 38 39 42 37 49 54 60 60 61 63 63 59 58 59 60 65 68 65 67 69 64 61 60 55 53 52 47 43 nan nan nan nan nan nan nan nan nan nan nan nan
29 30 32 32 31 32 32 33 33 33 33 33 32 31 32 32 32 33 34 34 33 33 33 34 34 33 34 33 33 33 33 36 39 42 42 42 41 40 39 36 37 38 41 43 42 44 45 48 50 59 56 60 61 62 65 65 63 60 66 70 72 73 72 69 69 66 64 61 55 51 50 45 nan nan nan nan nan nan nan nan nan nan nan nan nan
33 32 33 33 33 33 33 34 36 36 36 35 33 32 32 33 33 34 36 35 34 32 32 35 35 35 36 35 35 35 36 37 43 45 44 44 43 43 41 40 40 39 38 39 43 46 49 49 56 65 62 62 62 61 63 65 63 63 68 70 74 73 71 70 68 65 66 63 55 50 48 46 nan nan nan nan nan nan nan nan nan nan nan nan nan
36 35 35 35 36 35 35 35 35 35 36 35 34 33 32 34 35 35 34 34 35 33 33 35 38 38 39 38 37 37 38 39 40 46 49 48 48 47 45 45 42 41 40 38 41 45 48 55 69 65 65 67 69 68 66 64 63 65 66 69 70 67 68 67 68 66 66 63 58 54 53 nan nan nan nan nan nan nan nan nan nan nan nan nan nan
38 37 38 38 38 38 37 36 34 34 34 35 34 34 35 36 36 37 35 36 36 35 35 36 37 39 41 39 39 40 41 40 40 46 46 48 47 48 47 46 46 45 44 43 44 49 57 69 71 69 67 67 68 67 67 66 67 70 70 70 65 64 64 66 67 66 67 66 62 58 nan nan nan nan nan nan nan nan nan nan nan nan nan nan nan
41 40 40 40 40 39 39 38 37 37 37 37 36 35 35 35 35 36 36 35 35 36 37 37 38 41 43 42 43 44 43 43 41 46 48 47 45 44 44 43 43 44 46 47 54 63 67 68 65 66 64 70 72 71 72 72 71 71 70 69 67 64 63 61 62 64 67 66 nan nan nan nan nan nan nan nan nan nan nan nan nan nan nan nan nan
44 44 44 44 44 44 43 42 41 41 41 40 39 39 38 38 38 38 39 37 36 36 37 38 40 42 43 43 45 45 45 45 44 44 48 48 49 51 50 49 50 51 50 51 60 69 70 70 70 65 64 64 65 66 66 66 66 66 65 65 65 64 59 57 59 61 65 65 63 61 nan nan nan nan nan nan nan nan nan nan nan nan nan nan nan
47 47 46 45 46 46 45 46 44 43 44 44 42 42 42 42 41 40 38 39 39 39 40 41 44 43 43 43 45 45 47 45 44 46 51 55 56 54 55 54 53 52 52 57 68 76 73 73 69 67 65 66 66 66 67 66 62 61 62 61 62 64 63 58 60 64 65 65 nan nan nan nan nan nan nan nan nan nan nan nan nan nan nan nan nan
47 48 48 49 49 49 48 49 48 47 45 43 43 42 41 40 41 40 39 41 41 38 43 43 43 44 42 42 44 44 45 46 48 56 58 57 56 57 57 58 58 58 61 68 73 78 77 74 70 67 66 67 67 68 69 65 62 63 62 60 57 59 59 58 61 64 65 nan nan nan nan nan nan nan nan nan nan nan nan nan nan nan nan nan nan
46 48 50 51 52 51 50 48 47 43 41 40 38 36 36 40 37 34 39 43 45 48 48 44 44 45 49 48 47 46 45 45 50 60 60 60 60 60 58 58 62 67 77 77 77 79 79 79 75 72 72 72 71 73 71 67 66 66 62 55 nan nan nan 57 nan nan nan nan nan nan nan nan nan nan nan nan nan nan nan nan nan nan nan nan nan
48 49 50 50 49 49 49 48 46 44 43 41 39 38 38 37 41 45 43 42 45 45 45 45 46 46 45 47 49 48 47 48 52 61 62 63 63 64 63 66 72 79 81 82 78 79 82 83 81 79 78 77 75 75 72 71 70 65 56 52 54 56 56 nan nan nan nan nan nan nan nan nan nan nan nan nan nan nan nan nan nan nan nan nan nan
51 51 50 48 48 48 47 47 45 45 44 43 42 42 41 42 43 45 50 52 47 45 45 46 46 46 47 47 48 49 46 46 52 58 62 63 65 65 67 74 79 80 81 79 78 81 81 81 82 80 77 74 73 72 72 72 69 61 56 56 57 56 nan nan nan nan nan nan nan nan nan nan nan nan nan nan nan nan nan nan nan nan nan nan nan
53 50 49 48 47 46 46 46 46 46 46 46 47 46 47 47 48 48 48 49 51 51 51 49 48 49 49 49 48 47 47 47 48 54 57 60 63 66 71 73 78 80 81 78 82 81 80 80 80 81 80 77 74 73 73 73 69 65 61 60 59 nan nan nan nan nan nan nan nan nan nan nan nan nan nan nan nan nan nan nan nan nan nan nan nan
51 52 52 48 47 47 47 47 47 48 49 49 49 50 51 52 52 52 52 52 52 51 53 55 57 61 58 55 54 52 50 49 47 47 52 58 62 67 74 74 74 74 76 77 83 85 82 80 78 77 77 77 76 74 73 70 nan 65 63 61 nan nan nan nan nan nan nan nan nan nan nan nan nan nan nan nan nan nan nan nan nan nan nan nan nan
51 50 50 50 50 50 50 50 51 51 51 52 52 54 54 54 55 55 54 53 54 54 54 55 54 55 nan nan nan nan nan nan 48 48 50 54 60 74 74 73 75 77 77 78 83 83 81 80 78 78 79 81 79 74 68 nan 63 62 59 nan nan nan nan nan nan nan nan nan nan nan nan nan nan nan nan nan nan nan nan nan nan nan nan nan nan
51 52 53 53 53 54 54 54 54 53 52 52 54 56 56 57 57 56 55 55 56 56 53 52 52 nan 53 53 nan nan nan nan nan nan 54 55 63 72 70 74 73 76 77 79 83 84 82 80 77 76 75 72 66 62 nan nan 61 59 nan nan nan nan nan nan nan nan nan nan nan nan nan nan nan nan nan nan nan nan nan nan nan nan nan nan nan
55 55 55 55 55 55 56 54 54 50 53 54 56 57 59 59 58 57 57 57 56 53 51 51 nan nan nan nan nan nan nan 55 nan nan nan 67 66 64 65 68 75 80 82 79 78 77 76 73 69 67 65 63 63 nan nan nan nan nan nan nan nan nan nan nan nan nan nan nan nan nan nan nan nan nan nan nan nan nan nan nan nan nan nan nan nan
56 59 57 49 53 55 53 52 52 52 54 54 56 57 59 59 60 60 59 57 54 51 nan nan nan nan nan nan 47 50 50 nan nan nan nan nan 62 61 61 63 62 63 65 63 61 62 65 65 65 66 67 nan nan nan nan nan nan nan 48 49 nan nan nan nan nan nan nan nan nan nan nan nan nan nan nan nan nan nan nan nan nan nan nan nan nan
55 54 55 50 52 52 50 50 50 50 51 50 51 52 53 54 54 54 53 52 50 nan 50 49 nan nan nan nan 48 48 47 nan nan 56 nan nan nan nan nan 56 49 40 40 43 46 51 55 59 62 65 nan nan nan nan nan nan nan 50 nan nan nan nan nan nan nan nan nan nan nan nan nan nan nan nan nan nan nan nan nan nan nan nan nan nan nan
53 51 50 51 45 45 49 48 48 47 47 47 47 49 50 49 48 48 48 48 48 nan nan nan nan nan nan nan nan nan nan nan nan nan nan 52 nan nan nan nan nan 32 30 31 35 41 48 51 54 nan nan nan nan nan nan nan nan nan nan nan 34 35 34 32 31 30 nan nan nan nan nan nan nan nan nan nan nan nan nan nan nan nan nan nan nan
50 49 49 50 50 50 48 47 45 46 46 46 48 48 48 48 47 47 46 45 47 nan nan nan nan nan nan nan nan nan nan nan nan nan nan 52 52 nan nan nan 29 28 26 26 30 35 38 nan nan nan nan nan nan nan nan nan 38 34 32 31 30 30 29 29 nan nan nan nan nan nan nan nan nan nan nan nan nan nan nan nan nan nan nan nan nan
50 50 51 51 51 50 49 48 48 48 48 48 49 49 48 46 46 44 44 45 44 nan nan nan 46 47 nan nan nan nan nan nan nan nan nan 43 nan nan nan nan nan nan nan nan nan nan nan nan nan nan nan nan nan nan nan nan 26 27 28 28 27 28 28 nan nan nan nan nan nan nan nan nan nan nan nan nan nan nan nan nan nan nan nan nan nan
50 51 52 52 51 50 50 49 49 50 50 49 47 48 47 45 44 44 43 44 44 43 44 nan 44 46 nan nan 43 44 nan nan nan nan nan nan nan nan 31 nan nan nan nan nan nan nan nan nan nan nan nan nan 27 25 23 23 25 26 27 27 27 28 27 nan nan nan nan nan nan nan nan nan nan nan nan nan nan nan nan nan nan nan nan nan nan
52 53 54 54 54 52 51 51 50 50 50 48 46 45 43 42 41 42 43 44 44 42 44 nan nan nan nan 44 43 43 42 nan nan nan nan nan nan nan nan nan nan nan nan nan nan nan nan nan nan nan nan 22 21 23 24 25 25 26 27 28 28 27 26 nan nan nan nan nan nan nan nan nan nan nan nan nan nan nan nan nan nan nan nan nan nan
nan nan nan nan nan nan nan nan nan nan nan nan 45 44 43 41 40 41 nan 42 43 42 42 nan nan nan nan nan nan 41 nan nan nan nan nan nan nan nan nan nan nan nan nan nan nan nan nan nan nan 25 26 26 26 26 26 28 28 28 28 27 26 27 nan nan nan nan nan nan nan nan nan nan nan nan nan nan nan nan nan nan nan nan nan nan nan
nan nan nan nan nan nan nan nan nan nan nan nan nan nan nan nan nan nan nan nan nan nan nan nan nan 41 40 nan nan nan nan nan nan nan nan nan nan nan nan nan nan nan nan nan nan nan nan nan 24 27 28 29 29 30 31 31 29 28 27 27 27 nan nan nan nan nan nan nan nan nan nan nan nan nan nan nan nan nan nan nan nan nan nan nan nan
nan nan nan nan nan nan nan nan nan nan nan nan nan nan nan nan nan nan nan nan nan nan nan nan nan nan nan nan nan nan nan nan nan nan nan nan nan nan nan nan nan nan nan nan nan nan 22 24 26 28 29 30 31 32 31 30 28 28 27 nan nan nan nan nan nan nan nan nan nan nan nan nan nan nan nan nan nan nan nan nan nan nan nan nan nan
nan nan nan nan nan nan nan nan nan nan nan nan nan nan nan nan nan nan nan nan nan nan nan nan nan nan nan nan nan nan nan nan nan nan nan nan nan nan nan nan nan nan 31 30 28 24 23 25 27 28 30 31 32 31 30 29 29 29 nan nan nan nan nan nan nan nan nan nan nan nan nan nan nan nan nan nan nan nan nan nan nan nan nan nan nan
nan nan nan nan nan nan nan nan nan nan nan nan nan nan nan nan nan nan nan nan nan nan nan nan nan nan nan nan nan nan nan nan nan nan nan nan nan nan nan nan nan nan 28 31 29 28 26 26 28 30 31 32 32 31 31 31 31 nan nan nan nan nan nan nan nan nan nan nan nan nan nan nan nan nan nan nan nan nan nan nan nan nan nan nan nan
nan nan nan nan nan nan nan nan nan nan nan nan nan nan nan nan nan nan nan nan nan nan nan nan nan nan nan nan nan nan nan nan nan nan nan nan nan nan nan 27 25 27 nan 34 33 31 30 29 30 31 32 33 32 33 33 nan nan nan nan nan nan nan nan nan nan nan nan nan nan nan nan nan nan nan nan nan nan nan nan nan nan nan nan nan nan
Wind_Direction
291 286 284 291 296 302 304 307 315 303 302 300 299 297 293 294 291 287 284 289 289 291 293 294 296 297 299 301 308 306 309 316 317 313 312 320 319 323 328 336 345 345 344 343 339 340 343 343 343 344 345 348 348 348 347 346 343 338 338 340 340 336 335 333 334 331 324 321 nan nan nan nan nan 334 333 nan 327 327 nan nan 324 325 324 nan 324
294 290 288 290 305 300 304 302 302 298 304 304 307 304 301 299 296 291 293 291 291 294 296 293 293 297 299 299 301 304 305 310 315 311 308 309 313 307 319 327 338 343 338 338 334 332 334 340 341 342 343 347 347 349 348 348 348 343 338 339 338 335 332 331 332 329 325 320 325 nan nan nan nan 328 331 nan nan nan 327 nan 322 324 324 325 324
297 289 289 293 302 294 295 298 299 306 311 308 317 315 308 304 299 301 298 293 294 297 297 296 295 298 298 299 301 303 304 306 309 309 305 305 306 309 311 319 328 337 338 334 331 330 332 336 340 339 338 343 347 348 347 347 345 343 338 334 335 333 330 331 329 330 329 326 324 329 328 325 328 324 327 324 nan 323 324 324 324 323 325 325 323
287 287 291 298 299 293 296 298 305 308 313 311 319 317 310 306 305 308 307 304 304 301 301 299 298 300 301 301 303 302 303 302 303 305 304 300 297 302 306 312 314 318 321 324 327 327 330 332 336 337 336 340 344 344 344 344 343 341 339 334 333 334 330 329 331 329 328 327 325 328 321 323 325 325 322 322 323 323 323 322 325 326 326 325 323
291 293 294 297 296 298 306 304 308 313 314 307 317 315 315 311 308 315 314 318 319 309 305 304 302 301 300 303 302 302 301 301 300 300 296 292 292 293 301 307 310 311 316 320 322 324 325 329 332 333 333 338 341 342 341 342 341 339 338 337 337 337 334 332 332 331 330 329 325 324 323 323 322 323 322 322 322 322 322 325 325 325 326 324 322
295 294 291 295 298 310 308 309 319 321 316 313 316 316 317 320 320 319 324 328 327 326 320 311 305 304 301 300 300 301 300 299 299 296 293 290 287 289 296 304 305 306 309 314 316 317 319 325 328 330 332 335 339 340 340 341 338 338 339 341 343 343 341 337 334 332 330 328 325 322 322 322 321 321 321 321 322 322 323 324 326 326 324 323 322
286 292 294 300 302 312 313 315 312 313 309 307 303 310 322 333 339 336 330 338 344 347 346 338 322 315 308 303 304 303 301 299 295 292 287 287 288 289 296 301 301 299 303 309 311 313 316 320 325 328 330 333 337 339 340 340 338 339 338 342 346 346 344 338 333 331 329 327 324 321 318 318 319 319 319 321 321 321 322 323 326 324 322 321 320
283 285 288 293 302 315 313 309 306 303 297 296 303 313 324 337 345 341 337 352 4 7 5 359 349 336 327 320 315 309 306 302 299 294 287 287 287 289 293 296 297 295 297 302 307 309 313 318 325 327 328 330 333 336 338 339 336 338 337 339 344 346 343 337 331 327 325 324 321 319 317 315 316 316 315 318 321 322 323 323 323 321 320 320 322
276 280 284 292 300 302 295 293 292 292 293 295 302 313 322 332 337 338 345 358 3 15 13 5 358 349 342 335 328 320 315 311 305 301 296 296 291 290 292 296 294 292 293 297 302 305 307 311 321 327 326 328 331 331 336 334 334 337 336 337 343 345 344 340 334 328 324 322 319 318 316 315 315 315 316 319 323 322 320 321 319 317 318 321 321
275 282 291 295 289 285 286 285 287 290 291 299 303 307 314 322 325 335 345 349 353 2 4 2 359 352 346 340 333 326 322 315 314 317 305 294 293 285 285 291 294 291 291 294 298 303 307 307 312 327 322 325 325 329 331 332 334 336 333 333 338 342 342 339 334 327 323 323 322 320 318 316 314 315 316 320 319 318 319 318 319 316 317 319 322
277 283 287 283 279 280 279 283 283 289 296 295 296 303 311 308 315 326 330 336 344 343 347 354 354 347 344 338 337 331 327 322 324 318 315 308 294 289 288 289 293 294 295 296 297 299 301 306 308 313 316 319 324 328 329 329 329 333 331 330 331 334 337 340 338 332 325 323 323 322 320 317 315 314 316 318 319 319 318 317 316 316 318 nan nan
287 284 283 275 279 281 277 278 282 289 292 298 300 300 300 306 312 316 323 335 331 328 335 340 339 336 329 334 334 329 327 327 323 320 318 314 305 292 288 289 291 295 298 300 296 295 298 301 305 308 317 323 322 321 325 326 326 nan 331 328 329 332 336 339 341 339 333 327 325 324 322 320 317 316 319 321 319 318 318 315 317 316 317 nan nan
287 279 277 278 279 273 272 281 288 289 294 294 290 290 297 304 312 319 330 324 316 324 323 326 327 325 323 327 326 324 326 321 322 318 314 312 310 301 287 289 292 294 297 300 298 296 295 299 303 306 308 317 317 319 318 318 319 nan nan 328 326 330 334 336 334 337 336 334 330 327 325 322 321 319 319 317 315 318 317 317 317 317 nan 323 nan
293 292 291 291 287 283 283 288 292 290 285 285 288 291 295 302 307 304 302 305 315 320 325 325 328 335 323 326 320 313 323 318 323 318 313 311 308 300 287 286 286 289 293 295 293 295 297 298 300 303 304 308 314 317 312 311 313 316 321 325 328 327 327 329 330 331 331 336 335 331 327 325 322 318 316 316 317 316 315 315 315 315 318 323 322
291 293 298 300 298 299 304 308 306 295 287 286 287 291 292 288 294 292 295 302 311 312 320 313 325 334 327 323 320 324 315 314 315 318 315 313 309 299 290 286 283 285 288 292 293 296 298 298 301 302 302 305 308 313 309 306 307 312 319 324 326 325 325 327 328 328 331 335 335 333 329 325 322 318 315 317 316 313 310 309 309 311 313 nan nan
293 291 294 302 306 307 308 307 305 300 294 287 291 299 300 301 298 289 287 288 289 299 302 312 327 324 318 322 320 322 315 310 310 315 318 314 309 294 296 297 293 290 289 290 292 293 297 299 300 300 299 303 303 308 306 302 304 309 314 317 317 318 319 321 323 323 327 331 333 331 329 321 315 315 314 317 313 308 307 nan nan nan nan nan nan
292 293 294 300 304 302 301 299 298 301 298 294 299 304 302 299 289 280 284 284 287 296 296 302 300 306 313 312 317 316 316 301 300 309 312 313 304 298 302 303 301 298 294 292 292 295 298 300 299 296 298 300 298 304 302 301 302 306 309 311 311 313 314 311 309 314 316 306 306 304 304 nan nan nan nan nan 306 309 310 nan nan nan nan nan nan
292 291 292 292 289 286 289 291 289 290 293 301 303 296 291 282 283 281 285 288 290 292 289 286 290 294 304 313 313 312 310 302 301 303 307 308 307 303 303 309 313 307 301 299 296 297 303 305 300 298 298 296 297 302 301 301 301 303 304 306 308 309 309 307 303 299 297 299 302 304 305 nan nan nan nan nan nan nan nan nan nan nan nan nan nan
287 286 281 278 279 283 287 289 287 288 296 301 295 292 290 284 278 279 284 285 285 284 286 289 292 296 311 316 309 314 311 303 304 306 308 305 304 298 301 308 313 312 307 307 308 303 301 297 302 299 298 292 299 301 302 302 301 301 302 303 305 308 306 304 305 306 304 308 311 310 308 nan nan nan nan nan nan nan nan nan nan nan nan nan nan
272 274 276 279 280 282 283 288 291 292 296 293 289 290 289 288 287 284 285 285 287 290 294 296 301 302 309 312 304 311 317 304 300 310 308 306 308 296 300 306 309 312 308 307 307 305 302 298 297 301 296 292 298 300 301 302 300 298 299 300 302 304 301 301 303 304 304 306 309 312 313 nan nan nan nan nan nan nan nan nan nan nan nan nan nan
268 272 276 281 284 286 282 283 287 287 286 285 286 287 288 289 285 284 288 289 290 294 300 299 298 298 302 305 308 313 309 310 295 307 308 309 310 304 299 307 306 303 301 302 302 301 300 300 295 296 294 292 295 297 297 300 297 294 296 296 296 296 296 296 296 301 303 304 304 306 310 310 nan nan nan nan nan nan nan nan nan nan nan nan nan
256 263 269 275 280 283 284 282 282 281 281 281 283 285 285 285 285 289 290 290 294 296 296 297 298 299 301 303 304 309 306 306 294 303 308 310 309 316 302 309 306 301 297 296 298 297 298 294 290 290 293 289 292 293 295 296 296 288 291 291 290 291 291 291 293 296 300 300 299 303 308 310 314 nan nan nan nan nan nan nan nan nan nan nan nan
251 255 259 263 266 270 274 279 279 277 278 281 283 285 284 285 287 289 291 292 291 291 293 294 296 298 298 301 302 302 304 300 304 297 307 308 312 314 316 306 303 299 299 300 299 294 291 291 290 293 295 292 293 293 292 294 290 286 287 288 289 289 289 291 291 295 298 298 297 300 304 307 nan nan nan nan nan nan nan nan nan nan nan nan nan
251 254 256 258 261 263 266 271 274 275 278 280 281 280 281 282 283 285 287 289 286 287 291 293 295 298 299 300 301 302 302 300 302 305 302 311 309 312 313 313 305 302 304 300 297 293 290 292 289 297 296 294 293 291 289 287 285 287 283 285 286 287 286 287 288 293 295 295 293 297 302 305 nan nan nan nan nan nan nan nan nan nan nan nan nan
253 255 257 260 262 263 265 266 269 271 273 277 277 278 282 282 283 284 285 286 287 290 292 293 294 297 297 298 301 302 303 301 295 301 308 309 311 312 314 317 314 305 302 301 294 291 291 289 288 295 294 293 293 291 286 288 290 285 282 284 284 283 284 285 287 291 293 292 290 292 298 nan nan nan nan nan nan nan nan nan nan nan nan nan nan
257 258 260 261 264 266 269 271 272 272 274 274 276 277 280 281 283 284 287 288 289 293 293 294 294 295 293 297 301 300 298 297 295 291 297 303 306 314 317 316 316 312 306 298 296 289 287 286 293 295 295 293 291 285 282 285 289 289 287 288 288 289 289 288 288 289 289 289 289 293 nan nan nan nan nan nan nan nan nan nan nan nan nan nan nan
259 260 262 264 267 270 273 273 274 276 278 278 277 278 279 280 283 285 287 288 289 288 288 288 289 288 289 294 296 296 296 296 296 289 290 292 295 299 301 299 306 304 292 291 285 276 282 286 287 292 292 299 299 298 294 294 293 292 289 289 291 293 292 290 291 290 290 289 nan nan nan nan nan nan nan nan nan nan nan nan nan nan nan nan nan
260 261 262 263 265 267 269 271 272 273 276 279 279 279 280 281 282 282 282 283 281 282 283 284 285 286 288 291 292 294 295 296 297 296 294 294 291 287 289 290 291 291 292 295 293 287 283 283 285 281 283 286 289 287 290 292 297 298 296 292 289 287 287 291 293 293 292 290 289 290 nan nan nan nan nan nan nan nan nan nan nan nan nan nan nan
258 260 261 261 263 264 267 268 270 271 272 274 275 275 277 278 278 276 278 277 278 279 280 281 282 284 285 287 289 291 292 295 296 294 290 292 293 290 288 289 290 292 298 295 283 276 277 280 279 281 283 286 287 287 287 289 291 296 298 296 287 281 281 291 297 296 294 292 nan nan nan nan nan nan nan nan nan nan nan nan nan nan nan nan nan
258 260 261 261 262 264 264 267 269 271 273 273 273 273 273 268 264 268 270 273 276 277 273 275 274 276 282 285 285 286 287 287 287 289 293 295 299 301 298 298 299 296 292 291 286 281 282 282 282 283 284 284 286 286 286 286 288 291 294 295 288 282 285 293 295 293 293 nan nan nan nan nan nan nan nan nan nan nan nan nan nan nan nan nan nan
251 253 253 254 254 259 262 264 265 265 265 265 265 264 263 272 276 270 263 259 260 261 265 269 269 272 274 273 275 278 278 278 283 291 294 296 297 297 296 296 298 294 288 286 284 285 283 284 284 283 285 286 286 288 289 288 291 294 296 294 nan nan nan 292 nan nan nan nan nan nan nan nan nan nan nan nan nan nan nan nan nan nan nan nan nan
247 249 252 255 255 255 257 258 258 259 259 259 259 258 260 258 261 268 269 267 263 263 264 265 267 269 272 276 276 277 281 284 286 291 295 296 296 295 296 293 291 289 291 292 286 285 285 285 284 284 284 285 287 287 286 287 289 290 287 286 288 288 288 nan nan nan nan nan nan nan nan nan nan nan nan nan nan nan nan nan nan nan nan nan nan
247 249 250 251 253 253 255 257 258 259 260 261 262 263 264 264 264 264 267 273 277 276 276 277 279 280 283 285 288 288 285 281 286 293 297 298 297 296 295 291 290 291 291 286 281 280 281 282 284 284 285 286 286 287 287 287 286 282 280 284 287 287 nan nan nan nan nan nan nan nan nan nan nan nan nan nan nan nan nan nan nan nan nan nan nan
247 247 248 250 251 253 255 258 260 262 263 263 264 265 266 267 266 266 267 269 274 279 285 289 289 287 286 288 288 287 288 292 294 297 298 298 298 297 292 288 290 291 288 280 278 277 278 279 280 282 282 282 283 285 287 288 287 283 281 279 279 nan nan nan nan nan nan nan nan nan nan nan nan nan nan nan nan nan nan nan nan nan nan nan nan
253 255 253 251 255 257 259 261 262 263 264 264 265 265 266 266 267 268 269 270 271 273 274 279 286 286 279 274 275 278 281 282 283 289 297 299 299 296 292 285 283 282 283 281 278 276 276 276 277 278 278 279 281 284 285 283 nan 275 275 278 nan nan nan nan nan nan nan nan nan nan nan nan nan nan nan nan nan nan nan nan nan nan nan nan nan
250 254 255 256 257 259 261 262 262 262 261 262 262 264 264 265 266 267 269 271 272 273 274 274 273 274 nan nan nan nan nan nan 283 290 294 297 295 292 287 285 284 283 282 276 273 273 273 272 272 273 274 275 277 277 278 nan 274 271 271 nan nan nan nan nan nan nan nan nan nan nan nan nan nan nan nan nan nan nan nan nan nan nan nan nan nan
248 252 254 254 256 259 260 261 262 262 262 262 263 263 264 265 265 266 269 271 273 274 275 274 273 nan 276 282 nan nan nan nan nan nan 290 292 298 297 295 294 291 285 280 274 269 267 268 268 270 272 273 274 275 276 nan nan 282 276 nan nan nan nan nan nan nan nan nan nan nan nan nan nan nan nan nan nan nan nan nan nan nan nan nan nan nan
252 252 254 255 258 261 261 261 262 265 265 264 265 264 264 264 265 267 269 272 272 273 273 273 nan nan nan nan nan nan nan 286 nan nan nan 289 295 301 300 298 292 283 276 270 266 263 264 266 267 269 270 272 274 nan nan nan nan nan nan nan nan nan nan nan nan nan nan nan nan nan nan nan nan nan nan nan nan nan nan nan nan nan nan nan nan
256 262 257 256 264 262 263 262 264 264 265 266 267 267 266 265 265 266 268 270 270 271 nan nan nan nan nan nan 277 281 286 nan nan nan nan nan 300 300 296 294 289 278 271 270 266 259 259 262 264 265 267 nan nan nan nan nan nan nan 279 287 nan nan nan nan nan nan nan nan nan nan nan nan nan nan nan nan nan nan nan nan nan nan nan nan nan
258 260 259 256 262 263 262 264 266 268 268 269 270 269 269 267 265 265 266 268 270 nan 271 272 nan nan nan nan 279 281 284 nan nan 288 nan nan nan nan nan 301 302 293 276 268 263 258 256 256 259 263 nan nan nan nan nan nan nan 283 nan nan nan nan nan nan nan nan nan nan nan nan nan nan nan nan nan nan nan nan nan nan nan nan nan nan nan
260 260 259 259 257 261 265 267 270 270 272 272 272 272 272 271 269 269 270 271 272 nan nan nan nan nan nan nan nan nan nan nan nan nan nan 295 nan nan nan nan nan 311 303 288 275 266 261 258 256 nan nan nan nan nan nan nan nan nan nan nan 270 270 271 271 272 273 nan nan nan nan nan nan nan nan nan nan nan nan nan nan nan nan nan nan nan
257 256 256 256 258 261 265 268 271 274 276 276 276 274 273 272 272 272 272 272 272 nan nan nan nan nan nan nan nan nan nan nan nan nan nan 295 301 nan nan nan 261 251 246 243 244 247 249 nan nan nan nan nan nan nan nan nan 278 276 273 272 273 272 272 272 nan nan nan nan nan nan nan nan nan nan nan nan nan nan nan nan nan nan nan nan nan
254 255 255 257 260 263 266 269 271 272 274 274 274 274 274 274 273 274 275 274 274 nan nan nan 275 274 nan nan nan nan nan nan nan nan nan 298 nan nan nan nan nan nan nan nan nan nan nan nan nan nan nan nan nan nan nan nan 276 272 272 273 272 271 272 nan nan nan nan nan nan nan nan nan nan nan nan nan nan nan nan nan nan nan nan nan nan
253 255 258 259 262 266 267 267 268 270 270 272 273 273 272 273 274 274 274 274 275 276 278 nan 276 275 nan nan 281 279 nan nan nan nan nan nan nan nan 287 nan nan nan nan nan nan nan nan nan nan nan nan nan 271 275 273 270 269 271 273 273 272 273 272 nan nan nan nan nan nan nan nan nan nan nan nan nan nan nan nan nan nan nan nan nan nan
254 256 258 259 262 266 268 267 266 268 268 269 270 270 271 272 273 273 273 274 275 274 274 nan nan nan nan 281 280 278 278 nan nan nan nan nan nan nan nan nan nan nan nan nan nan nan nan nan nan nan nan 269 273 274 271 270 275 276 276 276 275 273 271 nan nan nan nan nan nan nan nan nan nan nan nan nan nan nan nan nan nan nan nan nan nan
nan nan nan nan nan nan nan nan nan nan nan nan 267 267 268 268 269 270 nan 272 272 271 270 nan nan nan nan nan nan 279 nan nan nan nan nan nan nan nan nan nan nan nan nan nan nan nan nan nan nan 258 268 273 275 277 276 275 278 275 273 272 270 270 nan nan nan nan nan nan nan nan nan nan nan nan nan nan nan nan nan nan nan nan nan nan nan
nan nan nan nan nan nan nan nan nan nan nan nan nan nan nan nan nan nan nan nan nan nan nan nan nan 271 271 nan nan nan nan nan nan nan nan nan nan nan nan nan nan nan nan nan nan nan nan nan 260 261 266 269 273 274 273 272 271 268 267 267 268 nan nan nan nan nan nan nan nan nan nan nan nan nan nan nan nan nan nan nan nan nan nan nan nan
nan nan nan nan nan nan nan nan nan nan nan nan nan nan nan nan nan nan nan nan nan nan nan nan nan nan nan nan nan nan nan nan nan nan nan nan nan nan nan nan nan nan nan nan nan nan 260 264 266 268 270 270 270 270 268 267 266 265 266 nan nan nan nan nan nan nan nan nan nan nan nan nan nan nan nan nan nan nan nan nan nan nan nan nan nan
nan nan nan nan nan nan nan nan nan nan nan nan nan nan nan nan nan nan nan nan nan nan nan nan nan nan nan nan nan nan nan nan nan nan nan nan nan nan nan nan nan nan 247 248 251 256 264 269 271 270 270 269 268 267 266 266 266 266 nan nan nan nan nan nan nan nan nan nan nan nan nan nan nan nan nan nan nan nan nan nan nan nan nan nan nan
nan nan nan nan nan nan nan nan nan nan nan nan nan nan nan nan nan nan nan nan nan nan nan nan nan nan nan nan nan nan nan nan nan nan nan nan nan nan nan nan nan nan 242 241 244 251 261 267 271 271 271 269 267 266 265 267 267 nan nan nan nan nan nan nan nan nan nan nan nan nan nan nan nan nan nan nan nan nan nan nan nan nan nan nan nan
nan nan nan nan nan nan nan nan nan nan nan nan nan nan nan nan nan nan nan nan nan nan nan nan nan nan nan nan nan nan nan nan nan nan nan nan nan nan nan 259 251 244 nan 240 241 247 257 265 268 269 268 268 267 267 267 nan nan nan nan nan nan nan nan nan nan nan nan nan nan nan nan nan nan nan nan nan nan nan nan nan nan nan nan nan nan